Погода в Курске

Погода в Курске : погода сейчас, прогноз погоды и архив. Всё, что Вы хотите узнать о погоде в Курске!

Хотите узнать прогноз погоды в Курске? Тогда Вам сюда: Погода в Курске

Поиск расширенной информации на нашем сайте:

Другие новости

Новости СМИ2

Главная страница сайта

Новости сайта

03.07.2017

Напоминаем, что на нашем специализированном сайте Метеоцентр.Азия вы можете получить высокодетализированные автоматические прогнозы погоды по пунктам России, СНГ и мира в авиационном формате (включающие направление и скорость ветра, видимость, явления погоды, количество и форму облачности, нижнюю и верхнюю границу облачности).


Погода в Курске - сегодня

Время (UTC), дата Ветер
(°,м/с) 
Видим.   Явления Облачность Т
(°С)
Тd
(°С)
f(%) Тe
(°С)
Pmin
(гПа)
dP
(гПа)
Po
(мм)
O2
(г/м3)
Тmin Tmax R s Состояние
почвы
00 16.08.18 тихо ()   10 км    ясно 
+19.3 +11.4 60 +23  1014.6  739  276           
09 16.08.18 350 (С) 10 км    8/1 1000 м верхняя 
[Cu hum|Ci fib]
+26.9 +14.3 46 +35  1015.6  0.4  741  269           
12 16.08.18 330 (СЗ) 10 км    8/5 600 м верхняя 
[Cu med, cong|Ci fib]
+28.8 +14.1 41 +36  1015  -0.4  740  267           
15 16.08.18 320 (СЗ) 10 км    8/3 1000 м средняя, верхняя 
[Cu med, cong|Ac trans|Ci fib]
+26.4 +14.1 47 +34  1015.5  0.2  741  269           
21 16.08.18 030 (СВ) 10 км    9/4 600 м средняя, верхняя 
[Sc|Ac trans|Ci fib]
+21.7 +13.8 61 +29  1017.4  0.3  742  274           
00 17.08.18 040 (СВ) 10 км    10/10 600 м 
[Sc]
+19.8 +14.3 71 +29  1017.8  0.3  742  276           
09 17.08.18 020 (С) 10 км    6/5 1000 м верхняя 
[Cu med, cong|Ci fib]
+25.1 +14.1 50 +32  1019.1  0.3  743  271           
12 17.08.18 030 (СВ) 10 км    6/6 1000 м 
[Cu med, cong]
+26 +12.8 44 +31  1018.6  -0.4  743  271           
15 17.08.18 020 (С) 10 км    3/3 1000 м 
[Cu med, cong]
+25.1 +11.8 43 +29  1018.5  0.1  743  272           
21 17.08.18 060 (СВ) 10 км    ясно 
+17.9 +10.9 64 +22  1020.5  0.6  744  279           
00 18.08.18 040 (СВ) 10 км    ясно 
+15.6 +9.8 68 +17  1021.2  0.5  744  282           
09 18.08.18 070 (В) 10 км    3/3 600 м 
[Cu hum]
+23 +7.6 37 +23  1021.8  745  276           
12 18.08.18 100 (В) 10 км    6/1 600 м верхняя 
[Cu hum|Ci fib]
+24.4 +6.7 32 +24  1021.1  -0.5  744  274           
15 18.08.18 070 (В) 10 км    6/0 верхняя 
[Ci fib]
+24.6 +6.8 32 +25  1020.3  -0.8  744  274           
21 18.08.18 100 (В) 10 км    ясно 
+18.7 +7.3 47 +20  1021.9  0.4  745  280           
00 19.08.18 120 (ЮВ) 10 км    ясно 
+16.2 +7.9 58 +18  1022.4  0.3  745  282           
09 19.08.18 130 (ЮВ) 10 км    3/0 верхняя 
[Ci fib]
+23.8 +6 32 +24  1021.6  -0.5  745  275           
12 19.08.18 170 (Ю) 10 км    1/0 верхняя 
[Ci fib]
+25.4 +5.7 28 +25  1020.3  -1.1  744  273           
15 19.08.18 160 (Ю) 10 км    1/0 верхняя 
[Ci fib]
+25.1 +5.7 29 +25  1019.2  -1.1  743  273           
21 19.08.18 160 (Ю) 10 км    ясно 
+18.4 +7.8 50 +19  1019.8  -0.2  743  279           
00 20.08.18 160 (Ю) 10 км    ясно 
+16.9 +7.7 55 +18  1019.7  -0.2  743  281           
09 20.08.18 220 (ЮЗ) 10 км    ясно 
+26.2 +6.8 29 +26  1018  -0.5  742  272           
12 20.08.18 240 (ЮЗ) 10 км    1/0 средняя 
[Ac trans]
+27.3 +5.7 25 +27  1016.6  -1.2  741  271           
15 20.08.18 240 (ЮЗ) 10 км    1/0 средняя 
[Ac trans]
+26.8 +6.9 28 +27  1015.6  -1.1  741  271           
21 20.08.18 200 (Ю) 10 км    3/0 верхняя 
[Ci fib]
+20.4 +6.7 41 +20  1015.6  -0.4  740  276           
Время (UTC), дата Ветер
(°,м/с) 
Видим.   Явления Облачность Т
(°С)
Тd
(°С)
f(%) Тe
(°С)
Pmin
(гПа)
dP
(гПа)
Po
(мм)
O2
(г/м3)
Тmin Tmax R s Состояние
почвы

Для получения пояснительной информации подведите курсор к названию столбца.

ПОГОДА в Курске - архив

Всё, что Вы хотите узнать о погоде в Курске - удобно и подробно!

Выберите нужную дату (начиная с 1 января 2015* года) и нажмите кнопку "Найти".
Будут отображены архивные сводки погоды по пункту Курск, начиная с указанной даты.


Отображать данные в формате CSV (для использования в таблицах Excel)


Внимание! Наш архив погоды предназначен исключительно для личного некоммерческого использования в познавательных целях. Если Вам необходимы официальные справки о состоянии погоды (для производственных, юридических, коммерческих и т.п. целей), обращайтесь в органы Росгидромета.

*Примечание: данная дата относится к архиву по метеостанциям СССР (Россия, СНГ, Балтия).
Архив по метеостанциям Зарубежной Европы и Азии (кроме Китая) хранится 10 дней, по другим регионам земного шара (Китай, Африка, Америка, Австралия, Океания) - 1 день.

Курск - район местоположения метеостанции


Название, широта, долгота, высота метеостанции:
Курск 51.8°ш. 36.2°д. 247 м над ур. моря [Российская Федерация]

Дополнительная информация

В oтличие oт бoльшинства пoгoдных сайтoв мы публикуем пoдрoбную метеoинфoрмацию в детальнoм прoфессиoнальнoм фoрмате.

Характеристики температуры и влажнoсти вoздуха измеряются на высoте 2 м в тени вдали oт зданий и деревьев.
Скoрoсть ветра измеряется на высoте 10 м (на урoвне рoста челoвека скoрoсть ветра ниже в 1.5-2 раза). Если метеoстанция нахoдится в гoрoде или в лесу, тo скoрoсть ветра занижена на 2-4 м/с пo сравнению с oткрытым местoм. Скoрoсть ветра над акватoриями крупных рек и oзёр, а также на вершинах хoлмoв на 2-5 м/с выше, чем в oбычных услoвиях.
Атмoсфернoе давление в разных тoчках местнoсти мoжет значительнo oтличаться oт давления на метеoстанции, в зависимoсти oт услoвий рельефа (при пoдъёме на 10 м давление пoнижается примернo на 1 мм рт.ст.).